Regional Weather Roundup
Issued by NWS Kansas City/Pleasant Hill, MO

Home | Current Version | Previous Version | Text Only | Print | Product List | Glossary On
Versions: 1 2 3 4 5 6 7 8 9 10 11 12 13 14 15 16 17 18 19 20 21 22 23 24 25 26 27 28 29 30 31 32 33 34 35 36 37 38 39 40 41 42 43 44 45 46 47 48 49 50
000
ASUS43 KEAX 281510
RWREAX

WEATHER ROUNDUP FOR EASTERN KANSAS AND NORTHWEST MISSOURI
NATIONAL WEATHER SERVICE KANSAS CITY/PLEASANT HILL MO
900 AM CST FRI NOV 28 2014

KSZ040-057-103>105-MOZ028-029-037-043-281600-
...KANSAS CITY METROPOLITAN AREA...

CITY           SKY/WX    TMP DP  RH WIND       PRES   REMARKS
K.C. INTL      MOSUNNY   40  27  59 SW18G25   29.97F WCI  31
K.C. DOWNTOWN  SUNNY     43  27  53 SW13      29.99F
LEES SUMMIT    SUNNY     40  27  59 SW12      30.00F WCI  33
OLATHE - IXD   SUNNY     40  27  59 S15       29.99F WCI  32
OLATHE - OJC   SUNNY     39  27  62 S17G23    29.98F WCI  30
LAWRENCE       SUNNY     40  26  57 S10       29.99F WCI  33

$$

MOZ001>008-011>017-020>025-030>033-038>040-044>046-053-054-281600-
...NORTHERN AND CENTRAL MISSOURI...

CITY           SKY/WX    TMP DP  RH WIND       PRES   REMARKS
ST. JOSEPH     SUNNY     38  27  64 S9        29.97F WCI  31
MOSBY          SUNNY     37  28  70 S7        30.00F WCI  32
WARRENSBURG    SUNNY     39  28  65 S13       30.03F WCI  32
WHITEMAN AFB   SUNNY     41  28  59 SW17      30.02F WCI  32
CLINTON        SUNNY     43  30  61 S12G18    30.07S
SEDALIA        SUNNY     42  27  55 S18G25    30.05S WCI  34
WARSAW         NOT AVBL
MARSHALL       SUNNY     43  30  61 S13G20    30.05F
CHILLICOTHE      N/A     37  26  64 S9        30.01F WCI  30
KIRKSVILLE     SUNNY     30  25  81 S10       30.03F WCI  21

$$

MOZ041-047>049-056>058-063>065-088>090-097-281600-
...EASTERN AND SOUTHERN MISSOURI...

CITY           SKY/WX    TMP DP  RH WIND       PRES   REMARKS
ST. LOUIS INTL MOSUNNY   33  27  78 S12       30.19F WCI  24
SPIRIT OF STL  SUNNY     35  28  75 S9        30.17F WCI  28
COLUMBIA       SUNNY     37  27  67 S14       30.08F WCI  28
JEFFERSON CITY SUNNY     38  27  64 SE8       30.11F WCI  32
MEXICO         SUNNY     36  32  87 S15G22    30.08F WCI  26
ROLLA          SUNNY     38  27  64 S18       30.11F WCI  28
LEBANON        SUNNY     41  28  60 S12G20    30.11F WCI  34
OSAGE BEACH    SUNNY     39  27  60 S13       30.11S WCI  32
SPRINGFIELD    SUNNY     41  27  57 S20G31    30.10F WCI  32
BRANSON        SUNNY     41  28  60 S8        30.17F
NEVADA         SUNNY     43  28  56 S17       30.06S WCI  35
JOPLIN         SUNNY     47  28  47 S21G31    30.08F
WEST PLAINS    SUNNY     36  28  73 S8        30.24R WCI  30

$$

IAZ060-094-KSZ022-034>040-054-083-096-NEZ052-066-093-281600-
...KANSAS...SOUTHEAST NEBRASKA AND IOWA...

CITY           SKY/WX    TMP DP  RH WIND       PRES   REMARKS
TOPEKA         SUNNY     40  26  57 S10G18    29.97F WCI  33
MANHATTAN      SUNNY     40  28  62 S7        29.93F
EMPORIA        SUNNY     37  26  64 S16       29.96F WCI  28
CHANUTE        SUNNY     42  29  59 S18G26    30.04S WCI  34
WICHITA        MOSUNNY   43  29  57 S12       30.00S
OMAHA          MOSUNNY   31  24  75 S10       29.89F WCI  22
LINCOLN        SUNNY     31  24  75 S5        29.88F WCI  26
FALLS CITY     SUNNY     35  25  66 S15       29.91F WCI  25
LAMONI         SUNNY     30  24  78 S9        29.95F WCI  22
DES MOINES     CLOUDY    26  20  77 S12       29.95F WCI  16

$$




USA.gov is the U.S. government's official web portal to all federal, state and local government web resources and services.